Regional Weather Roundup
Issued by NWS Charleston, SC

Current Version | Previous Version | Graphics & Text | Print | Product List | Glossary On
Versions: 1 2 3 4 5 6 7 8 9 10 11 12 13 14 15 16 17 18 19 20 21 22 23 24 25 26 27 28 29 30 31 32 33 34 35 36 37 38 39 40 41 42 43 44 45 46 47 48 49 50
000
ASUS42 KCHS 260013
RWRCHS

REGIONAL WEATHER ROUNDUP
NATIONAL WEATHER SERVICE CHARLESTON SC
800 PM EDT THU AUG 25 2016

NOTE: "FAIR" INDICATES FEW OR NO CLOUDS BELOW 12,000 FEET WITH NO
SIGNIFICANT WEATHER AND/OR OBSTRUCTIONS TO VISIBILITY.

NOT ALL STATIONS ARE QUALITY CONTROLLED. USE DATA WITH CAUTION...
ESPECIALLY DEWPOINT OBSERVATIONS.

SCZ027-030-031-034>040-042>050-260100-
...SOUTHEAST SOUTH CAROLINA...

CITY           SKY/WX    TMP DP  RH WIND       PRES   REMARKS
N CHARLESTON   PTCLDY    82  70  66 SE6       30.07S
6HR MIN TEMP:  82; 6HR MAX TEMP:  92;

WATERFRONT PRK   N/A     84  75  74 E8        30.06S HX  92
MOUNT PLEASANT FAIR      81  73  78 CALM      30.08S
JOHNS ISLAND   FAIR      81  73  78 CALM      30.08S
PINOPOLIS        N/A     84  72  65 VRB2      30.00S
MONCKS CORNER  FAIR      81  68  65 CALM      30.07S
SUMMERVILLE    FAIR      84  72  65 CALM      30.08S
BEAUFORT MCAS  CLEAR     83  72  69 E6        30.08R
6HR MIN TEMP:  83; 6HR MAX TEMP:  92;

BEAUFORT ARPT  FAIR      81  72  74 SE3       30.08R
HILTON HEAD IS NOT AVBL
WALTERBORO     CLEAR     84  70  61 SE6       30.08S
ALLENDALE      FAIR      86  63  45 SE3       30.06R

...SOUTHERN MIDLANDS AND PEE DEE...

CITY           SKY/WX    TMP DP  RH WIND       PRES   REMARKS
GEORGETOWN     FAIR      79  70  73 SE3       30.09S
KINGSTREE      FAIR      82  70  65 SE6       30.07S
ORANGEBURG     CLEAR     85  65  51 SE5       30.07R
6HR MIN TEMP:  85; 6HR MAX TEMP:  93;

BARNWELL       NOT AVBL
AIKEN          FAIR      84  68  58 CALM      30.10S
MANNING        FAIR      81  68  65 CALM      30.07S
COLUMBIA       PTCLDY    88  67  49 SE8       30.05S HX  91
6HR MIN TEMP:  88; 6HR MAX TEMP:  95;

SUMTER         CLEAR     86  68  55 SE3       30.05S
6HR MIN TEMP:  86; 6HR MAX TEMP:  92;

FLORENCE       CLEAR     86  68  54 SE6       30.07S
6HR MIN TEMP:  86; 6HR MAX TEMP:  93;

MYRTLE BEACH   PTCLDY    82  64  54 SE12      30.09F
N MYRTLE BEACH CLEAR     82  69  64 SE3       30.09R
6HR MIN TEMP:  82; 6HR MAX TEMP:  87;


$$

GAZ063-065-086>088-099>101-113>116-118-119-134>141-150-260100-
...SOUTHEAST GEORGIA...

CITY           SKY/WX    TMP DP  RH WIND       PRES   REMARKS
SAVANNAH ARPT  PTCLDY    84  68  58 E13       30.07R
6HR MIN TEMP:  84; 6HR MAX TEMP:  94;

HUNTER AAF     CLEAR     82  75  78 E6        30.04S
6HR MIN TEMP:  82; 6HR MAX TEMP:  90;

FORT STEWART   CLEAR     82  69  65 SE3       30.04R
6HR MIN TEMP:  82; 6HR MAX TEMP:  91;

STATESBORO     CLEAR     84  69  60 CALM      30.06S
SYLVANIA       NOT AVBL
CLAXTON        FAIR      84  67  56 E8        30.06R

...CSRA...CENTRAL AND FAR SOUTHEAST GEORGIA...

CITY           SKY/WX    TMP DP  RH WIND       PRES   REMARKS
THOMSON        CLEAR     87  73  64 MISG      30.11S HX  94
AUGUSTA-BUSH   CLEAR     82  72  71 S5        30.05R
6HR MIN TEMP:  82; 6HR MAX TEMP:  93;

AUGUSTA-DANIEL CLEAR     89  68  49 S5        30.07S HX  93
SWAINSBORO     FAIR      88  63  42 E5        30.07R
VIDALIA        CLEAR     86  68  54 NE5       30.06S
EASTMAN        FAIR      88  49  26 CALM      30.07S
HAZLEHURST     FAIR      88  64  44 CALM      30.05R
ALMA           PTCLDY    85  68  56 E5        30.04S
6HR MIN TEMP:  85; 6HR MAX TEMP:  91;

WAYCROSS         N/A     87  74  64 SE9G17    30.05S HX  95
JESUP          FAIR      82  75  78 SE7       30.07R
BAXLEY         FAIR      86  72  62 CALM      30.05R HX  92
BRUNSWICK      PTCLDY    82  75  78 E10       30.07S
SAINT SIMONS   PTCLDY    83  72  69 E10       30.05S
6HR MIN TEMP:  83; 6HR MAX TEMP:  89; 6HR PCP: TRACE;


$$

SCZ027-028-034-036>038-045-046-048>050-GAZ119-141-260100-
...LAKE AND SUPPLEMENTAL COASTAL OBSERVATIONS...

STATION/POSITION TIME  TEMP    WIND        PRES    WAVE   SWELL
                       AIR SEA DIR/SP/G            HT/PER HT/PER/DIR
                 (UTC) (F)     (DEG/KT/KT) (MB)    (FT/S) (FT/S/D)
WINYAH BAY       2245   83     130/  7     1018.0
LAKE MURRAY      2300   92      CALM  /  2 1016.9F
ACE BASIN NERRS  NOT AVBL
FORT PULASKI     2300   85 86              1018.7S
SAPELO ISLAND    2300   85      80/ 10     1018.0S

$$

ANZ835-935-AMZ111-154-330-350-352-354-370-450-454-472-260100-
...C-MAN AND BUOY OBSERVATIONS...

STATION/POSITION TIME  TEMP    WIND        PRES    WAVE   SWELL
                       AIR SEA DIR/SP/G            HT/PER HT/PER/DIR
                 (UTC) (F)     (DEG/KT/KT) (MB)    (FT/S) (FT/S/D)
BUOY 41004       2350   83 84   70/ 12/ 14 1017.8R   3/ 9   3/ 80/ 9
BUOY 41008       2350   83 85   80/ 16/ 17 1017.6S   4/ 5   2/ 90/10
FOLLY BEACH CMAN 0000   82     100/  8/  9 1018.8R
CAPERS NEARSHORE 2308   83 85  110/ 10/ 12 1018.3F
FRIPP NEARSHORE  2308   83 86  110/ 12/ 16 1017.7S


STATION/POSITION TIME  TEMP    WIND        PRES    WAVE   SWELL
                       AIR SEA DIR/SP/G            HT/PER HT/PER/DIR
                 (UTC) (F)     (DEG/KT/KT) (MB)    (FT/S) (FT/S/D)
5E ST. MARYS GA  2301      85                N/A     5/ 5   2/100/11
FRYING PAN BUOY  2300   83 85   90/  8/ 10 1018.3F
BUOY 41025       2350   81 84  100/  4/  6 1019.5R   3/ 9   3/ 90/ 9
CAPE LOOKOUT NC  0000   81     120/  7/  8 1019.0R
BUOY 41002       2350   82 84   50/ 12/ 14 1017.3R   4/ 7   3/ 70/ 7
BUOY 41010       NOT AVBL
ST AUGUSTINE FL  0000   83 84   60/ 17/ 19 1017.9R


$$




USA.gov is the U.S. government's official web portal to all federal, state and local government web resources and services.